Location: ??
(34.9170°N, 135.5016°E)
Time: 22:17:13
(UTC+00:00)

Envisat - Visible Passes

Search period start: 22 January 2021 00:00
Search period end: 01 February 2021 00:00
Orbit: 764 x 766 km, 98.1° (Epoch: 22 January)

Date Brightness Start Highest point End Pass type
(mag) Time Alt. Az. Time Alt. Az. Time Alt. Az.
22 Jan 6.2 09:22:31 10° WSW 09:24:46 13° W 09:27:02 10° WNW visible
22 Jan 5.1 19:53:15 10° NE 19:57:30 27° E 20:01:44 10° SSE visible
22 Jan 3.8 21:32:04 10° N 21:36:26 30° WNW 21:40:47 10° SW visible
23 Jan 5.2 08:43:13 10° SSW 08:47:41 31° W 08:52:10 10° NW visible
23 Jan 6.3 19:19:15 10° ENE 19:20:23 11° E 19:21:31 10° ESE visible
23 Jan 2.9 20:54:45 10° N 20:59:49 70° WNW 21:04:51 10° SSW visible
24 Jan 3.9 20:18:05 10° NNE 20:23:01 49° E 20:27:54 10° S visible
25 Jan 6.0 09:10:01 10° SW 09:13:15 17° W 09:16:31 10° NW visible
25 Jan 5.5 19:42:15 10° NE 19:46:01 21° E 19:49:46 10° SE visible
25 Jan 3.5 21:20:26 10° N 21:25:06 38° WNW 21:29:45 10° SW visible
26 Jan 3.0 20:43:19 10° NNE 20:48:25 89° WNW 20:53:30 10° SSW visible
27 Jan 4.5 20:06:51 10° NNE 20:11:34 38° E 20:16:15 10° SSE visible
28 Jan 5.9 08:57:53 10° SW 09:01:45 22° W 09:05:40 10° NW visible
28 Jan 5.9 19:31:28 10° NE 19:34:31 16° E 19:37:33 10° SE visible
28 Jan 3.2 21:08:52 10° N 21:13:45 49° WNW 21:18:37 10° SSW visible
29 Jan 3.3 20:31:56 10° NNE 20:37:01 71° ESE 20:42:04 10° S visible
30 Jan 6.4 09:25:40 10° WSW 09:27:23 12° W 09:29:06 10° WNW visible
30 Jan 5.0 19:55:42 10° NE 20:00:06 29° E 20:04:28 10° SSE visible
31 Jan 5.4 08:45:56 10° SSW 08:50:17 28° W 08:54:39 10° NW visible
31 Jan 6.2 19:21:07 10° ENE 19:23:00 12° E 19:24:52 10° ESE visible
31 Jan 3.0 20:57:21 10° N 21:02:23 64° WNW 21:07:23 10° SSW visible
